CST,Max TemperatureF,Mean TemperatureF,Min TemperatureF,Max Dew PointF,MeanDew PointF,Min DewpointF,Max Humidity, Mean Humidity, Min Humidity, Max Sea Level PressureIn, Mean Sea Level PressureIn, Min Sea Level PressureIn, Max VisibilityMiles, Mean VisibilityMiles, Min VisibilityMiles, Max Wind SpeedMPH, Mean Wind SpeedMPH, Max Gust SpeedMPH,PrecipitationIn, CloudCover, Events, WindDirDegrees
2012-12-1,87,78,69,70,67,66,90,71,51,30.13,30.08,30.03,10,10,9,25,14,30,0.00,2,,153
2012-12-2,87,76,65,67,65,61,93,69,44,30.14,30.08,30.05,10,10,9,22,12,29,0.00,1,,147
2012-12-3,87,74,61,69,63,59,100,70,40,30.06,30.02,29.96,10,7,0,25,13,33,0.00,2,Fog,153
2012-12-4,89,78,66,70,66,60,97,69,40,30.15,30.08,30.01,10,9,5,17,8,20,0.01,3,Fog-Rain-Thunderstorm,147
2012-12-5,80,67,54,63,51,43,90,59,28,30.22,30.12,30.04,10,10,7,14,8,17,0.00,0,Fog,21
2012-12-6,78,63,48,63,55,46,100,77,54,30.04,29.95,29.86,10,5,0,15,7,21,0.00,2,Fog,28
2012-12-7,87,75,63,68,65,61,100,73,45,29.87,29.83,29.76,10,10,8,25,13,31,0.00,1,Fog,151
2012-12-8,85,77,69,70,67,65,90,73,55,29.89,29.84,29.80,10,10,10,25,14,31,0.00,3,,151
2012-12-9,84,77,70,72,69,66,90,74,58,29.91,29.85,29.77,10,8,4,25,12,30,0.00,4,,160
2012-12-10,73,61,49,70,38,18,93,58,22,30.13,29.98,29.80,10,9,6,36,18,43,0.00,5,,10
2012-12-11,56,50,43,30,25,19,58,41,24,30.23,30.15,30.10,10,10,10,20,10,25,0.00,5,,40
2012-12-12,66,51,35,38,29,16,70,43,16,30.34,30.26,30.23,10,10,10,13,6,16,0.00,0,,45
2012-12-13,71,58,45,59,50,38,83,65,47,30.28,30.22,30.15,10,10,10,20,10,23,0.00,5,,71
2012-12-14,80,75,69,67,64,59,79,70,60,30.13,30.00,29.91,10,10,10,31,17,38,0.01,7,Rain,149
2012-12-15,80,75,69,70,69,66,90,79,67,29.94,29.87,29.83,10,9,4,23,11,29,0.00,6,,160
2012-12-16,84,76,68,72,68,56,87,73,58,29.87,29.80,29.73,10,8,2,20,8,25,T,6,,195
2012-12-17,82,67,51,54,41,28,67,41,14,30.00,29.93,29.85,10,10,10,21,8,29,0.00,0,,306
2012-12-18,87,66,44,70,55,36,87,62,37,29.96,29.88,29.82,10,10,10,25,14,31,0.00,1,,173
2012-12-19,85,79,72,70,69,68,87,73,59,29.83,29.76,29.68,10,10,8,32,21,38,0.00,5,,167
2012-12-20,75,57,38,70,25,3,90,50,10,30.49,30.21,29.79,10,10,7,37,21,46,T,2,Rain,329
2012-12-21,61,45,29,35,18,7,52,33,13,30.55,30.45,30.36,10,10,9,12,5,13,0.00,1,,16
2012-12-22,75,61,47,58,49,33,77,62,46,30.36,30.23,30.10,10,10,10,25,12,29,0.00,3,,123
2012-12-23,85,70,55,63,59,53,93,65,37,30.09,29.99,29.90,10,10,10,26,13,33,0.00,1,,178
2012-12-24,85,73,61,66,62,57,93,69,44,29.95,29.84,29.72,10,10,10,21,10,25,0.00,1,,160
2012-12-25,83,63,42,67,46,19,90,50,10,30.15,29.77,29.61,10,10,9,38,22,45,0.00,2,,262
2012-12-26,55,45,35,34,25,20,57,46,35,30.30,30.19,30.12,10,10,10,23,8,29,0.00,1,,352
2012-12-27,60,54,47,52,44,33,80,68,56,30.09,29.91,29.80,10,10,6,15,9,18,T,8,Rain,17
2012-12-28,76,63,49,54,44,27,93,57,20,30.18,29.89,29.77,10,8,0,24,14,31,0.00,4,Fog,357
2012-12-29,57,48,39,32,23,19,58,41,23,30.47,30.39,30.20,10,10,10,24,12,31,0.00,0,,14
2012-12-30,67,55,42,59,42,24,68,53,38,30.43,30.30,30.15,10,10,9,21,12,24,T,5,Rain,69
2012-12-31,80,73,66,66,64,59,87,75,62,30.12,29.99,29.88,10,10,7,24,13,30,0.01,7,Rain,161